| time (UTC) | temp F | wind direction | speed knots | gust knots | rain 1hr in | rain 24hr in | rain mn in | humidity % | barometer mb |
| 20260502190032 | 62 | 104 | 0.0 | 0.0 | 0.00 | 0.00 | 0.00 | 45 | 1005.0 |
| 20260502184531 | 63 | 103 | 0.0 | 0.0 | 0.00 | 0.00 | 0.00 | 40 | 1005.0 |
| 20260502183030 | 66 | 104 | 0.0 | 0.0 | 0.00 | 0.00 | 0.00 | 37 | 1004.8 |
| 20260502181529 | 68 | 114 | 0.0 | 0.0 | 0.00 | 0.00 | 0.00 | 34 | 1004.7 |
| 20260502163022 | 75 | 187 | 1.7 | 3.5 | 0.00 | 0.00 | 0.00 | 28 | 1005.4 |
| 20260502161521 | 77 | 42 | 0.9 | 3.5 | 0.00 | 0.00 | 0.00 | 28 | 1005.6 |
| 20260502151517 | 78 | 12 | 0.9 | 2.6 | 0.00 | 0.00 | 0.00 | 27 | 1006.2 |
| 20260502123007 | 76 | 300 | 1.7 | 7.0 | 0.00 | 0.00 | 0.00 | 28 | 1008.3 |
| 20260502121507 | 74 | 102 | 1.7 | 4.3 | 0.00 | 0.00 | 0.00 | 28 | 1008.5 |
| 20260502114504 | 75 | 228 | 0.9 | 3.5 | 0.00 | 0.00 | 0.00 | 28 | 1008.8 |
| 20260502113004 | 75 | 318 | 1.7 | 3.5 | 0.00 | 0.00 | 0.00 | 28 | 1009.0 |
| 20260502111503 | 74 | 47 | 1.7 | 4.3 | 0.00 | 0.00 | 0.00 | 29 | 1009.2 |
| 20260502110001 | 73 | 312 | 1.7 | 4.3 | 0.00 | 0.00 | 0.00 | 30 | 1009.3 |
| 20260502104500 | 74 | 198 | 0.9 | 3.5 | 0.00 | 0.00 | 0.00 | 28 | 1009.6 |
| 20260502102959 | 74 | 204 | 0.9 | 3.5 | 0.00 | 0.00 | 0.00 | 29 | 1009.7 |
| 20260502101458 | 74 | 192 | 1.7 | 3.5 | 0.00 | 0.00 | 0.00 | 29 | 1009.9 |
| 20260502091454 | 72 | 309 | 1.7 | 5.2 | 0.00 | 0.00 | 0.00 | 33 | 1010.6 |
| 20260502071447 | 66 | 120 | 0.9 | 1.7 | 0.00 | 0.00 | 0.00 | 47 | 1011.0 |
| 20260502065946 | 63 | 147 | 0.9 | 2.6 | 0.00 | 0.00 | 0.00 | 51 | 1011.0 |
| 20260502064444 | 62 | 134 | 0.0 | 1.7 | 0.00 | 0.00 | 0.00 | 54 | 1011.0 |
| 20260502062944 | 56 | 144 | 0.0 | 1.7 | 0.00 | 0.00 | 0.00 | 60 | 1011.1 |
| 20260502061443 | 54 | 139 | 0.0 | 1.7 | 0.00 | 0.00 | 0.00 | 65 | 1011.2 |
| 20260502055942 | 52 | 138 | 0.0 | 1.7 | 0.00 | 0.00 | 0.00 | 68 | 1011.1 |
| 20260502054441 | 50 | 144 | 0.0 | 1.7 | 0.00 | 0.00 | 0.00 | 72 | 1011.1 |
| 20260502052940 | 48 | 156 | 0.0 | 0.0 | 0.00 | 0.00 | 0.00 | 76 | 1011.2 |
| 20260502051439 | 47 | 96 | 0.0 | 1.7 | 0.00 | 0.00 | 0.00 | 76 | 1011.1 |
| 20260502045938 | 46 | 108 | 0.0 | 2.6 | 0.00 | 0.00 | 0.00 | 77 | 1010.9 |
| 20260502044437 | 44 | 71 | 0.0 | 0.0 | 0.00 | 0.00 | 0.00 | 80 | 1010.9 |
| 20260502042936 | 43 | 114 | 0.0 | 0.0 | 0.00 | 0.00 | 0.00 | 83 | 1011.0 |
| 20260502041435 | 40 | 96 | 0.0 | 0.0 | 0.00 | 0.00 | 0.00 | 91 | 1011.0 |
| 20260502035934 | 39 | 306 | 0.0 | 0.0 | 0.00 | 0.00 | 0.00 | 91 | 1011.0 |
| 20260502034433 | 39 | 252 | 0.0 | 0.0 | 0.00 | 0.00 | 0.00 | 90 | 1011.0 |
| 20260502032932 | 39 | 120 | 0.0 | 0.0 | 0.00 | 0.00 | 0.00 | 90 | 1010.9 |
| 20260502031431 | 39 | 120 | 0.0 | 0.0 | 0.00 | 0.00 | 0.00 | 90 | 1010.9 |
| 20260502025930 | 40 | 120 | 0.0 | 0.0 | 0.00 | 0.00 | 0.00 | 86 | 1010.9 |
| 20260502024429 | 42 | 102 | 0.0 | 0.0 | 0.00 | 0.00 | 0.00 | 84 | 1011.0 |
| 20260502022928 | 40 | 330 | 0.0 | 0.0 | 0.00 | 0.00 | 0.00 | 87 | 1011.0 |
| 20260502021427 | 42 | 96 | 0.0 | 0.0 | 0.00 | 0.00 | 0.00 | 83 | 1010.8 |
| 20260502015926 | 43 | 102 | 0.0 | 0.0 | 0.00 | 0.00 | 0.00 | 84 | 1010.9 |
| 20260502014425 | 42 | 102 | 0.0 | 0.0 | 0.00 | 0.00 | 0.00 | 87 | 1011.0 |
| 20260502012924 | 41 | 102 | 0.0 | 0.0 | 0.00 | 0.00 | 0.00 | 88 | 1010.9 |
| 20260502011424 | 43 | 102 | 0.0 | 0.0 | 0.00 | 0.00 | 0.00 | 86 | 1010.9 |
| 20260502005923 | 43 | 96 | 0.0 | 0.0 | 0.00 | 0.00 | 0.00 | 87 | 1011.0 |
| 20260502004422 | 42 | 96 | 0.0 | 0.0 | 0.00 | 0.00 | 0.00 | 88 | 1011.1 |
| 20260502002921 | 43 | 96 | 0.0 | 0.0 | 0.00 | 0.00 | 0.00 | 85 | 1011.1 |
| 20260502001420 | 44 | 96 | 0.0 | 0.0 | 0.00 | 0.00 | 0.00 | 83 | 1011.2 |
| 20260501235919 | 44 | 96 | 0.0 | 0.0 | 0.00 | 0.00 | 0.00 | 85 | 1011.1 |
| 20260501234418 | 44 | 258 | 0.0 | 0.0 | 0.00 | 0.00 | 0.00 | 85 | 1011.1 |
| 20260501232917 | 44 | 84 | 0.0 | 0.0 | 0.00 | 0.00 | 0.00 | 85 | 1011.1 |
| 20260501231416 | 44 | 114 | 0.0 | 0.0 | 0.00 | 0.00 | 0.00 | 83 | 1011.2 |
| 20260501225915 | 45 | 114 | 0.0 | 0.0 | 0.00 | 0.00 | 0.00 | 82 | 1011.3 |
| 20260501224414 | 47 | 114 | 0.0 | 0.0 | 0.00 | 0.00 | 0.00 | 79 | 1011.3 |
| 20260501222913 | 49 | 102 | 0.0 | 0.0 | 0.00 | 0.00 | 0.00 | 74 | 1011.3 |
| 20260501221412 | 49 | 90 | 0.0 | 0.0 | 0.00 | 0.00 | 0.00 | 74 | 1011.5 |
| 20260501215912 | 48 | 90 | 0.0 | 0.0 | 0.00 | 0.00 | 0.00 | 75 | 1011.4 |
| 20260501212909 | 47 | 264 | 0.0 | 0.0 | 0.00 | 0.00 | 0.00 | 77 | 1011.4 |
| 20260501211408 | 48 | 264 | 0.0 | 0.0 | 0.00 | 0.00 | 0.00 | 75 | 1011.4 |
| 20260501205907 | 49 | 264 | 0.0 | 0.0 | 0.00 | 0.00 | 0.00 | 75 | 1011.2 |
| 20260501204406 | 49 | 264 | 0.0 | 0.0 | 0.00 | 0.00 | 0.00 | 73 | 1011.4 |
| 20260501202906 | 50 | 264 | 0.0 | 0.0 | 0.00 | 0.00 | 0.00 | 72 | 1011.3 |
| 20260501201404 | 51 | 264 | 0.0 | 0.0 | 0.00 | 0.00 | 0.00 | 70 | 1011.3 |
| 20260501195903 | 53 | 264 | 0.0 | 0.0 | 0.00 | 0.00 | 0.00 | 66 | 1011.3 |
| 20260501194403 | 53 | 264 | 0.0 | 0.0 | 0.00 | 0.00 | 0.00 | 64 | 1011.2 |
| 20260501192901 | 55 | 264 | 0.0 | 0.0 | 0.00 | 0.00 | 0.00 | 63 | 1011.4 |
| 20260501191401 | 55 | 264 | 0.0 | 0.0 | 0.00 | 0.00 | 0.00 | 60 | 1011.3 |